星链-5482 (STARLINK-5482 )

导读

STARLINK-5482是美国太空探索技术公司(SpaceX)星链(Starlink)卫星互联网项目的组网卫星,于2023年4月27日由美国发射升空。星链计划旨在构建覆盖全球的低轨卫星互联网星座,为全球偏远地区和特殊场景提供高速宽带服务,该卫星入轨后将和其他星链卫星协同,进一步增强星座的服务覆盖能力与网络稳定性。

基本信息
目录编号:
56358
目录名称:
STARLINK-5482
国际标识:
2023-058AT
轨道中心:
EARTH
卫星名称:
星链-5482
卫星全名:
星链-5482 (STARLINK-5482 )
卫星状态:
在轨 (已飞行1145 天)
发射日期:
2023-04-27 UTC
国别 :
美国 (US)
星等 :
--
轨道信息
数据来源 国际轨道数据 AOE轨道数据
星历时间 2026-06-15T07:02:55+0800
5小时前
查看轨道信息
2026-06-11T11:00:00+0800
4天前
查看轨道信息
半长轴 6927.641km 6927.57km
偏心率 0.0001868 0.0000482
轨道倾角 97.360° 97.382°
近地点辐角 77.750° 129.299°
升交点赤经 165.129° 161.461°
平近点角 282.394° 334.995°
近地点 548.209km 549.099km
远地点 550.799km 549.767km
周期 95.640分钟 95.638分钟
每日圈数 15.056524 15.056757
详细信息
固有亮度:
5
最大亮度:
2.5
卫星平台:
Starlink v1.5
覆盖范围:
全球
运营商:
太空探索技术公司
运营商所在国:
美国
制造商(研发单位):
太空探索技术公司
制造商所在国:
美国
使用方式:
暂无
卫星简介
星链(Starlink)计划是由太空探索技术公司(SpaceX)提出的一个巨型低轨卫星互联网星座项目,计划在2019年至2024年间在太空搭建由约1.2万颗卫星组成的“星链”网络,其中1584颗将部署在地球上空550千米处的近地轨道,并从2020年开始工作。该卫星仍在工作。
2D轨道图
3D轨道图
轨道高度分析图
轨道倾角分析图
轨道综合分析图
查看轨道综合分析图